#timestamp,LO_Frequency,Hit,StdDev 
1531108815.0,286047002.2,N
1531108816.0,286047002.2,N
1531108835.8,286047000.1,N
1531108855.6,286047000.5,N
1531108875.5,286047002.5,N
1531108895.3,286046999.8,N
1531108915.1,286047002.7,N
1531108935.9,286047000.6,N
1531108955.7,286047000.8,N
1531108975.6,286047000.1,N
1531108995.4,286046999.7,N
1531109015.2,286046999.7,N
1531109035.1,286047000.9,N
1531109036.0,286047000.9,N
1531109055.8,286047000.2,N
1531109075.7,286047000.6,N
1531109095.5,286046999.3,N
1531109115.3,286046998.9,N
1531109135.2,286046998.5,N
1531109155.0,286047000.8,N
1531109155.9,286047000.8,N
1531109175.8,286047000.5,N
1531109195.6,286047000.6,N
1531109215.4,286047000.0,N
1531109235.3,286047000.8,N
1531109255.1,286047000.7,N
1531109275.8,286046999.3,N
1531109295.7,286046999.6,N
1531109315.5,286046998.6,N
1531109335.4,286047001.1,N
1531109355.2,286046998.7,N
1531109375.0,286046998.7,N
1531109376.0,286046998.7,N
1531109395.8,286046998.2,N
1531109415.6,286047000.9,N
1531109435.5,286046998.9,N
1531109455.3,286047000.4,N
1531109475.1,286047000.6,N
1531109495.9,286047000.2,N
1531109515.7,286047001.0,N
1531109535.6,286047000.0,N
1531109555.4,286047000.0,N
1531109575.2,286047000.8,N
1531109595.1,286047000.0,N
1531109615.1,286047002.8,Y
1531109616.0,286047002.8,P
1531109635.8,286046999.9,N
1531109655.7,286047000.3,N
1531109675.5,286047000.5,N
1531109695.3,286046998.1,N
1531109715.2,286047001.1,N
1531109735.0,286047000.8,N
1531109735.9,286047000.8,N
1531109755.8,286047001.2,N
1531109775.6,286047000.5,N
1531109795.4,286046998.6,N
1531109815.3,286047000.5,N
1531109835.1,286047000.5,N
1531109855.9,286047001.0,N
1531109875.7,286047000.8,N
1531109895.5,286047000.8,N
1531109915.4,286047000.5,N
1531109935.2,286047002.4,N
1531109955.0,286047002.4,N
1531109955.9,286047002.4,N
1531109975.8,286047002.3,N
1531109995.6,286047000.4,N
1531110015.5,286047000.5,N
1531110035.3,286047002.2,N
1531110055.1,286046999.9,N
1531110075.9,286047000.4,N
1531110095.7,286047000.8,N
1531110115.5,286047000.0,N
1531110135.4,286047000.5,N
1531110155.2,286047000.2,N
1531110175.1,286046999.8,N
1531110176.0,286046999.8,N
1531110195.8,286047000.2,N
1531110215.6,286047001.9,N
1531110235.5,286047002.3,N
1531110255.3,286047002.7,N
1531110275.1,286047000.4,N
1531110295.9,286047000.4,N
1531110315.7,286047002.5,N
1531110335.6,286047004.2,Y
1531110355.4,286047002.0,P
1531110375.2,286047001.9,P
1531110395.1,286047002.6,P
1531110396.0,286047002.6,Y
1531110415.8,286046998.5,P
1531110435.7,286046998.1,N
1531110455.5,286047000.9,N
1531110475.3,286046999.9,N
1531110495.2,286046998.5,N
1531110515.9,286046999.0,N
1531110535.7,286046996.9,N
1531110555.6,286046999.5,N
1531110575.4,286046999.6,N
1531110595.2,286046999.1,N
1531110615.1,286046995.0,Y
1531110616.0,286046995.0,P
1531110635.8,286046997.3,N
1531110655.7,286046996.7,N
1531110675.5,286046997.0,N
1531110695.3,286046999.1,N
1531110715.2,286046997.1,N
1531110735.0,286046999.2,N
1531110735.9,286046999.2,N
1531110755.8,286046999.3,N
1531110775.6,286046997.5,N
1531110795.4,286046997.7,N
1531110815.3,286046997.3,N
1531110835.1,286046999.5,N
1531110855.9,286046996.6,N
1531110875.7,286046998.4,N
1531110895.5,286046999.2,N
1531110915.4,286046994.9,Y
1531110935.2,286046996.7,P
1531110955.1,286046997.3,P
1531110956.0,286046997.3,P
1531110975.8,286046997.3,Y
1531110995.6,286046999.7,P
1531111015.5,286047002.0,N
1531111035.3,286047001.8,N
1531111055.1,286047004.3,N
1531111075.9,286047003.6,N
1531111095.7,286047002.7,N
1531111115.6,286047001.7,N
1531111135.4,286047002.1,N
1531111155.2,286047000.1,N
1531111175.1,286047000.1,N
1531111176.0,286047000.1,N
1531111195.8,286047002.4,N
1531111215.6,286047004.1,N
1531111235.5,286047002.0,N
1531111255.3,286047000.5,N
1531111275.2,286047001.2,N
1531111295.0,286047001.0,N
1531111295.9,286047001.0,N
1531111315.7,286046998.1,N
1531111335.6,286047000.8,N
1531111355.4,286047002.7,N
1531111375.3,286047000.4,N
1531111395.1,286046998.5,N
1531111415.8,286046998.9,N
1531111435.7,286046998.1,N
1531111455.5,286046999.4,N
1531111475.4,286046999.6,N
1531111495.2,286047000.8,N
1531111515.0,286046998.3,N
1531111515.9,286046998.3,N
1531111535.8,286046998.2,N
1531111555.6,286047000.5,N
1531111575.5,286047001.2,N
1531111595.3,286047000.7,N
1531111615.1,286046998.8,N
1531111635.9,286046998.4,N
1531111655.7,286046998.1,N
1531111675.6,286046999.2,N
1531111695.4,286046998.7,N
1531111715.2,286047001.1,N
1531111735.1,286046998.5,N
1531111736.0,286046998.5,N
1531111755.8,286046998.3,N
1531111775.7,286046998.1,N
1531111795.5,286046998.1,N
1531111815.3,286046998.7,N
1531111835.2,286046998.9,N
1531111855.0,286047001.2,N
1531111855.9,286047001.2,N
1531111875.8,286047002.8,N
1531111895.6,286047000.7,N
1531111915.4,286046998.1,N
1531111935.3,286046998.6,N
1531111955.1,286046998.2,N
1531111975.9,286046998.5,N
1531111995.7,286046998.8,N
1531112015.5,286046996.6,N
1531112035.4,286046998.7,N
1531112055.2,286046999.3,N
1531112075.0,286046997.1,N
1531112075.9,286046997.1,N
1531112095.8,286046999.0,N
1531112115.6,286046999.2,N
1531112135.5,286046997.8,N
1531112155.3,286046998.3,N
1531112175.1,286046999.0,N
1531112195.9,286046998.3,N
1531112215.7,286046999.4,N
1531112235.5,286046996.9,N
1531112255.4,286046998.4,N
1531112275.2,286046997.4,N
1531112295.0,286046996.8,N
1531112296.0,286046996.8,N
1531112315.8,286046996.7,N
1531112335.6,286046997.1,N
1531112355.5,286046997.5,N
1531112375.3,286046995.5,Y
1531112395.1,286046997.0,P
